START_TIME,STEP,MOV.,M34,t_acc.,L5,t_acc.,L18,t_acc.,L14,t_acc.
1979-03-10 12:00:22.220 ,4,1,0.,12.0,0.,12.0,0.,12.0,0.,12.0
1979-03-10 12:00:34.220 ,4,1,0.,12.0,0.,12.0,0.,12.0,0.,12.0
1979-03-10 12:00:46.220 ,7,1,0.,12.0,0.,12.0,0.,12.0,0.,12.0
1979-03-10 12:00:58.220 ,7,1,0.,12.0,0.,12.0,0.,12.0,0.,12.0
1979-03-10 12:01:10.220 ,3,1,0.,12.0,0.,12.0,0.,12.0,0.,12.0
1979-03-10 12:01:22.220 ,3,1,0.,12.0,0.,12.0,0.,12.0,0.,12.0
1979-03-10 12:01:34.220 ,0,1,0.,12.0,0.,12.0,0.,12.0,0.,12.0
1979-03-10 12:01:46.220 ,0,1,0.,12.0,0.,12.0,0.,12.0,0.,12.0
1979-03-10 12:01:58.220 ,4,1,0.,12.0,0.,12.0,0.,12.0,0.,12.0
1979-03-10 12:02:10.220 ,4,1,0.,12.0,0.,12.0,0.,12.0,0.,12.0
1979-03-10 12:02:22.220 ,7,1,0.,12.0,0.,12.0,0.,12.0,0.,12.0
1979-03-10 12:02:34.220 ,7,1,0.,12.0,0.,12.0,0.,12.0,0.,12.0
1979-03-10 12:02:46.220 ,3,1,0.,12.0,0.,12.0,0.,12.0,0.,12.0
1979-03-10 12:02:58.220 ,3,1,0.,12.0,0.,12.0,0.,12.0,0.,12.0
1979-03-10 12:03:10.220 ,0,1,0.,12.0,0.,12.0,0.,12.0,0.,12.0
1979-03-10 12:03:22.220 ,0,1,0.,12.0,0.,12.0,0.,12.0,0.,12.0
1979-03-10 12:03:34.220 ,4,1,0.,12.0,0.,12.0,0.,12.0,0.,12.0
1979-03-10 12:03:46.220 ,4,1,0.,12.0,0.,12.0,0.,12.0,0.,12.0
1979-03-10 12:03:58.220 ,7,1,0.,12.0,0.,12.0,0.,12.0,0.,12.0
1979-03-10 12:04:10.220 ,7,1,0.,12.0,0.,12.0,0.,12.0,0.,12.0
1979-03-10 12:04:22.220 ,3,1,0.,12.0,0.,12.0,0.,12.0,0.,12.0
1979-03-10 12:04:34.220 ,3,1,0.,12.0,0.,12.0,0.,12.0,0.,12.0
1979-03-10 12:04:46.220 ,0,1,0.,12.0,0.,12.0,0.,12.0,0.,12.0
1979-03-10 12:04:58.220 ,0,1,0.,12.0,0.,12.0,0.,12.0,0.,12.0
1979-03-10 12:05:10.220 ,4,1,0.,12.0,0.,12.0,0.,12.0,0.,12.0
1979-03-10 12:05:22.220 ,4,1,0.,12.0,0.,12.0,0.,12.0,0.,12.0
1979-03-10 12:05:34.220 ,7,1,0.,12.0,0.,12.0,0.,12.0,0.,12.0
1979-03-10 12:05:46.220 ,7,1,0.,12.0,0.,12.0,0.,12.0,0.,12.0
1979-03-10 12:05:58.220 ,3,1,0.,12.0,0.,12.0,0.,12.0,0.,12.0
1979-03-10 12:06:10.220 ,3,1,0.,12.0,0.,12.0,0.,12.0,0.,12.0
1979-03-10 12:06:22.220 ,0,1,0.,12.0,0.,12.0,0.,12.0,0.,12.0
1979-03-10 12:06:34.220 ,0,1,0.,12.0,0.,12.0,0.,12.0,0.,12.0
1979-03-10 12:06:46.220 ,4,1,0.,12.0,0.,12.0,0.,12.0,0.,12.0
1979-03-10 12:06:58.220 ,4,1,0.,12.0,0.,12.0,0.,12.0,0.,12.0
1979-03-10 12:07:10.220 ,7,1,0.,12.0,0.,12.0,0.,12.0,0.,12.0
1979-03-10 12:07:22.220 ,7,1,0.,12.0,0.,12.0,0.,12.0,0.,12.0
1979-03-10 12:07:34.220 ,3,1,0.,12.0,0.,12.0,0.,12.0,0.,12.0
1979-03-10 12:07:46.220 ,3,1,0.,12.0,0.,12.0,0.,12.0,0.,12.0
1979-03-10 12:07:58.220 ,0,1,0.,12.0,0.,12.0,0.,12.0,0.,12.0
1979-03-10 12:08:10.220 ,0,1,0.,12.0,0.,12.0,0.,12.0,0.,12.0
1979-03-10 12:08:22.220 ,4,1,0.,12.0,0.,12.0,0.,12.0,0.,12.0
1979-03-10 12:08:34.220 ,4,1,0.,12.0,0.,12.0,0.,12.0,0.,12.0
1979-03-10 12:08:46.220 ,7,1,0.,12.0,0.,12.0,0.,12.0,0.,12.0
1979-03-10 12:08:58.220 ,7,1,0.,12.0,0.,12.0,0.,12.0,0.,12.0
1979-03-10 12:09:10.220 ,3,1,0.,12.0,0.,12.0,0.,12.0,0.,12.0
1979-03-10 12:09:22.220 ,3,1,0.,12.0,0.,12.0,0.,12.0,0.,12.0
1979-03-10 12:09:34.220 ,0,1,0.,12.0,0.,12.0,0.,12.0,0.,12.0
1979-03-10 12:09:46.220 ,0,1,0.,12.0,0.,12.0,0.,12.0,0.,12.0
1979-03-10 12:09:58.220 ,4,1,0.,12.0,0.,12.0,0.,12.0,0.,12.0
1979-03-10 12:10:10.220 ,4,1,0.,12.0,0.,12.0,0.,12.0,0.,12.0
1979-03-10 12:10:22.220 ,7,1,0.,12.0,0.,12.0,0.,12.0,0.,12.0
1979-03-10 12:10:34.220 ,7,1,0.,12.0,0.,12.0,0.,12.0,0.,12.0
1979-03-10 12:10:46.220 ,3,1,0.,12.0,0.,12.0,0.,12.0,0.,12.0
1979-03-10 12:10:58.220 ,3,1,0.,12.0,0.,12.0,0.,12.0,0.,12.0
1979-03-10 12:11:10.220 ,0,1,0.,12.0,0.,12.0,0.,12.0,0.,12.0
1979-03-10 12:11:22.220 ,0,1,0.,12.0,0.,12.0,0.,12.0,0.,12.0
1979-03-10 12:11:34.220 ,4,1,0.,12.0,0.,12.0,0.,12.0,0.,12.0
1979-03-10 12:11:46.220 ,4,1,0.,12.0,0.,12.0,0.,12.0,0.,12.0
1979-03-10 12:11:58.220 ,7,1,0.,12.0,0.,12.0,0.,12.0,0.,12.0
1979-03-10 12:12:10.220 ,7,1,0.,12.0,0.,12.0,0.,12.0,0.,12.0
1979-03-10 12:12:22.220 ,3,1,0.,12.0,0.,12.0,0.,12.0,0.,12.0
1979-03-10 12:12:34.220 ,3,1,0.,12.0,0.,12.0,0.,12.0,0.,12.0
1979-03-10 12:12:46.220 ,0,1,0.,12.0,0.,12.0,0.,12.0,0.,12.0
1979-03-10 12:12:58.220 ,0,1,0.,12.0,0.,12.0,0.,12.0,0.,12.0
1979-03-10 12:13:10.220 ,4,1,0.,12.0,0.,12.0,0.,12.0,0.,12.0
1979-03-10 12:13:22.220 ,4,1,0.,12.0,0.,12.0,0.,12.0,0.,12.0
1979-03-10 12:13:34.220 ,7,1,0.,12.0,0.,12.0,0.,12.0,0.,12.0
1979-03-10 12:13:46.220 ,7,1,0.,12.0,0.,12.0,0.,12.0,0.,12.0
1979-03-10 12:13:58.220 ,3,1,0.,12.0,0.,12.0,0.,12.0,0.,12.0
1979-03-10 12:14:10.220 ,3,1,0.,12.0,0.,12.0,0.,12.0,0.,12.0
1979-03-10 12:14:22.220 ,0,1,0.,12.0,0.,12.0,0.,12.0,0.,12.0
1979-03-10 12:14:34.220 ,0,1,0.,12.0,0.,12.0,0.,12.0,0.,12.0
1979-03-10 12:14:46.220 ,4,1,0.,12.0,0.,12.0,0.,12.0,0.,12.0
1979-03-10 12:14:58.220 ,4,1,0.,12.0,0.,12.0,0.,12.0,0.,12.0
1979-03-10 12:15:10.220 ,7,1,0.,12.0,0.,12.0,0.,12.0,0.,12.0
1979-03-10 12:15:22.220 ,7,1,0.,12.0,0.,12.0,0.,12.0,0.,12.0
1979-03-10 12:15:34.220 ,3,1,0.,12.0,0.,12.0,0.,12.0,0.,12.0
1979-03-10 12:15:46.220 ,3,1,0.,12.0,0.,12.0,0.,12.0,0.,12.0
1979-03-10 12:15:58.220 ,0,1,0.,12.0,0.,12.0,0.,12.0,0.,12.0
1979-03-10 12:16:10.220 ,0,1,0.,12.0,0.,12.0,0.,12.0,0.,12.0
1979-03-10 12:16:22.220 ,4,1,0.,12.0,0.,12.0,0.,12.0,0.,12.0
1979-03-10 12:16:34.220 ,4,1,0.,12.0,0.,12.0,0.,12.0,0.,12.0
1979-03-10 12:16:46.220 ,7,1,0.,12.0,0.,12.0,0.,12.0,0.,12.0
1979-03-10 12:16:58.220 ,7,1,0.,12.0,0.,12.0,0.,12.0,0.,12.0
1979-03-10 12:17:10.220 ,3,1,0.,12.0,0.,12.0,0.,12.0,0.,12.0
1979-03-10 12:17:22.220 ,3,1,0.,12.0,0.,12.0,0.,12.0,0.,12.0
1979-03-10 12:17:34.220 ,0,1,0.,12.0,0.,12.0,0.,12.0,0.,12.0
1979-03-10 12:17:46.220 ,0,1,0.,12.0,0.,12.0,0.,12.0,0.,12.0
1979-03-10 12:17:58.220 ,4,1,0.,12.0,0.,12.0,0.,12.0,0.,12.0
1979-03-10 12:18:10.220 ,4,1,0.,12.0,0.,12.0,0.,12.0,0.,12.0
1979-03-10 12:18:22.220 ,7,1,0.,12.0,0.,12.0,0.,12.0,0.,12.0
1979-03-10 12:18:34.220 ,7,1,0.,12.0,0.,12.0,0.,12.0,0.,12.0
1979-03-10 12:18:46.220 ,3,1,0.,12.0,0.,12.0,0.,12.0,0.,12.0
1979-03-10 12:18:58.220 ,3,1,0.,12.0,0.,12.0,0.,12.0,0.,12.0
1979-03-10 12:19:10.220 ,0,1,0.,12.0,0.,12.0,0.,12.0,0.,12.0
1979-03-10 12:19:22.220 ,0,1,0.,12.0,0.,12.0,0.,12.0,0.,12.0
1979-03-10 12:19:34.220 ,4,1,0.,12.0,0.,12.0,0.,12.0,0.,12.0
1979-03-10 12:19:46.220 ,4,1,0.,12.0,0.,12.0,0.,12.0,0.,12.0
1979-03-10 12:19:58.220 ,7,1,0.,12.0,0.,12.0,0.,12.0,0.,12.0
1979-03-10 12:20:10.220 ,7,1,0.,12.0,0.,12.0,0.,12.0,0.,12.0
1979-03-10 12:20:22.220 ,3,1,0.,12.0,0.,12.0,0.,12.0,0.,12.0
1979-03-10 12:20:34.220 ,3,1,0.,12.0,0.,12.0,0.,12.0,0.,12.0
1979-03-10 12:20:46.220 ,0,1,0.,12.0,0.,12.0,0.,12.0,0.,12.0
1979-03-10 12:20:58.220 ,0,1,0.,12.0,0.,12.0,0.,12.0,0.,12.0
1979-03-10 12:21:10.220 ,4,1,0.,12.0,0.,12.0,0.,12.0,0.,12.0
1979-03-10 12:21:22.220 ,4,1,0.,12.0,0.,12.0,0.,12.0,0.,12.0
1979-03-10 12:21:34.220 ,7,1,0.,12.0,0.,12.0,0.,12.0,0.,12.0
1979-03-10 12:21:46.220 ,7,1,0.,12.0,0.,12.0,0.,12.0,0.,12.0
1979-03-10 12:21:58.220 ,3,1,0.,12.0,0.,12.0,0.,12.0,0.,12.0
1979-03-10 12:22:10.220 ,3,1,0.,12.0,0.,12.0,0.,12.0,0.,12.0
1979-03-10 12:22:22.220 ,0,1,0.,12.0,0.,12.0,0.,12.0,0.,12.0
1979-03-10 12:22:34.220 ,0,1,0.,12.0,0.,12.0,0.,12.0,0.,12.0
1979-03-10 12:22:46.220 ,4,1,0.,12.0,0.,12.0,0.,12.0,0.,12.0
1979-03-10 12:22:58.220 ,4,1,0.,12.0,0.,12.0,0.,12.0,0.,12.0
1979-03-10 12:23:10.220 ,7,1,0.,12.0,0.,12.0,0.,12.0,0.,12.0
1979-03-10 12:23:22.220 ,7,1,0.,12.0,0.,12.0,0.,12.0,0.,12.0
1979-03-10 12:23:34.220 ,3,1,0.,12.0,0.,12.0,0.,12.0,0.,12.0
1979-03-10 12:23:46.220 ,3,1,0.,12.0,0.,12.0,0.,12.0,0.,12.0
1979-03-10 12:23:58.220 ,0,0,0.,12.0,0.,12.0,0.,12.0,0.,12.0
1979-03-10 12:24:10.220 ,0,0,0.,12.0,0.,12.0,0.,12.0,0.,12.0
1979-03-10 12:24:22.220 ,0,1,0.,12.0,0.,12.0,0.,12.0,0.,12.0
1979-03-10 12:24:34.220 ,0,1,0.,12.0,0.,12.0,0.,12.0,0.,12.0
1979-03-10 12:24:46.220 ,1,1,0.,12.0,0.,12.0,0.,12.0,0.,12.0
1979-03-10 12:24:58.220 ,1,1,0.,12.0,0.,12.0,0.,12.0,0.,12.0
1979-03-10 12:25:10.220 ,2,1,0.,12.0,0.,12.0,0.,12.0,0.,12.0
1979-03-10 12:25:22.220 ,2,1,0.,12.0,0.,12.0,0.,12.0,0.,12.0
1979-03-10 12:25:34.220 ,3,1,0.,12.0,0.,12.0,0.,12.0,0.,12.0
1979-03-10 12:25:46.220 ,3,1,0.,12.0,0.,12.0,0.,12.0,0.,12.0
1979-03-10 12:25:58.220 ,4,1,0.,12.0,0.,12.0,0.,12.0,0.,12.0
1979-03-10 12:26:10.220 ,4,1,0.,12.0,0.,12.0,0.,12.0,0.,12.0
1979-03-10 12:26:22.220 ,5,1,0.,12.0,0.,12.0,0.,12.0,0.,12.0
1979-03-10 12:26:34.220 ,5,1,0.,12.0,0.,12.0,0.,12.0,0.,12.0
1979-03-10 12:26:46.220 ,6,1,0.,12.0,0.,12.0,0.,12.0,0.,12.0
1979-03-10 12:26:58.220 ,6,1,0.,12.0,0.,12.0,0.,12.0,0.,12.0
1979-03-10 12:27:10.220 ,7,1,0.,12.0,0.,12.0,0.,12.0,0.,12.0
1979-03-10 12:27:22.220 ,7,1,0.,12.0,0.,12.0,0.,12.0,0.,12.0
1979-03-10 12:27:34.220 ,7,1,0.,12.0,0.,12.0,0.,12.0,0.,12.0
1979-03-10 12:27:46.220 ,7,1,0.,12.0,0.,12.0,0.,12.0,0.,12.0
1979-03-10 12:27:58.220 ,6,1,0.,12.0,0.,12.0,0.,12.0,0.,12.0
1979-03-10 12:28:10.220 ,6,1,0.,12.0,0.,12.0,0.,12.0,0.,12.0
1979-03-10 12:28:22.220 ,5,1,0.,12.0,0.,12.0,0.,12.0,0.,12.0
1979-03-10 12:28:34.220 ,5,1,0.,12.0,0.,12.0,0.,12.0,0.,12.0
1979-03-10 12:28:46.220 ,4,1,0.,12.0,0.,12.0,0.,12.0,0.,12.0
1979-03-10 12:28:58.220 ,4,1,0.,12.0,0.,12.0,0.,12.0,0.,12.0
1979-03-10 12:29:10.220 ,3,1,0.,12.0,0.,12.0,0.,12.0,0.,12.0
1979-03-10 12:29:22.220 ,3,1,0.,12.0,0.,12.0,0.,12.0,0.,12.0
1979-03-10 12:29:34.220 ,2,1,0.,12.0,0.,12.0,0.,12.0,0.,12.0
1979-03-10 12:29:46.220 ,2,1,0.,12.0,0.,12.0,0.,12.0,0.,12.0
1979-03-10 12:29:58.220 ,1,1,0.,12.0,0.,12.0,0.,12.0,0.,12.0
1979-03-10 12:30:10.220 ,1,1,0.,12.0,0.,12.0,0.,12.0,0.,12.0
1979-03-10 12:30:22.220 ,0,1,0.,12.0,0.,12.0,0.,12.0,0.,12.0
1979-03-10 12:30:34.220 ,0,1,0.,12.0,0.,12.0,0.,12.0,0.,12.0
1979-03-10 12:30:46.220 ,0,1,0.,12.0,0.,12.0,0.,12.0,0.,12.0
1979-03-10 12:30:58.220 ,0,1,0.,12.0,0.,12.0,0.,12.0,0.,12.0
1979-03-10 12:31:10.220 ,1,1,0.,12.0,0.,12.0,0.,12.0,0.,12.0
1979-03-10 12:31:22.220 ,1,1,0.,12.0,0.,12.0,0.,12.0,0.,12.0
1979-03-10 12:31:34.220 ,2,1,0.,12.0,0.,12.0,0.,12.0,0.,12.0
1979-03-10 12:31:46.220 ,2,1,0.,12.0,0.,12.0,0.,12.0,1.,12.0
1979-03-10 12:31:58.220 ,3,1,0.,12.0,0.,12.0,0.,12.0,0.,12.0
1979-03-10 12:32:10.220 ,3,1,0.,12.0,0.,12.0,0.,12.0,0.,12.0
1979-03-10 12:32:22.220 ,4,1,0.,12.0,0.,12.0,0.,12.0,0.,12.0
1979-03-10 12:32:34.220 ,4,1,0.,12.0,0.,12.0,0.,12.0,0.,12.0
1979-03-10 12:32:46.220 ,5,1,0.,12.0,0.,12.0,0.,12.0,0.,12.0
1979-03-10 12:32:58.220 ,5,1,0.,12.0,0.,12.0,0.,12.0,0.,12.0
1979-03-10 12:33:10.220 ,6,1,0.,12.0,0.,12.0,0.,12.0,0.,12.0
1979-03-10 12:33:22.220 ,6,1,0.,12.0,0.,12.0,0.,12.0,0.,12.0
1979-03-10 12:33:34.220 ,7,1,0.,12.0,0.,12.0,0.,12.0,0.,12.0
1979-03-10 12:33:46.220 ,7,1,0.,12.0,0.,12.0,0.,12.0,0.,12.0
1979-03-10 12:33:58.220 ,7,1,0.,12.0,0.,12.0,0.,12.0,0.,12.0
1979-03-10 12:34:10.220 ,7,1,0.,12.0,0.,12.0,0.,12.0,0.,12.0
1979-03-10 12:34:22.220 ,6,1,0.,12.0,0.,12.0,0.,12.0,0.,12.0
1979-03-10 12:34:34.220 ,6,1,0.,12.0,0.,12.0,0.,12.0,0.,12.0
1979-03-10 12:34:46.220 ,5,1,0.,12.0,0.,12.0,0.,12.0,0.,12.0
1979-03-10 12:34:58.220 ,5,1,0.,12.0,0.,12.0,0.,12.0,0.,12.0
1979-03-10 12:35:10.220 ,4,1,0.,12.0,0.,12.0,0.,12.0,0.,12.0
1979-03-10 12:35:22.220 ,4,1,0.,12.0,0.,12.0,0.,12.0,0.,12.0
1979-03-10 12:35:34.220 ,3,1,0.,12.0,0.,12.0,0.,12.0,0.,12.0
1979-03-10 12:35:46.220 ,3,1,0.,12.0,0.,12.0,0.,12.0,0.,12.0
1979-03-10 12:35:58.220 ,2,1,0.,12.0,0.,12.0,0.,12.0,0.,12.0
1979-03-10 12:36:10.220 ,2,1,0.,12.0,0.,12.0,0.,12.0,0.,12.0
1979-03-10 12:36:22.220 ,1,1,0.,12.0,0.,12.0,0.,12.0,0.,12.0
1979-03-10 12:36:34.220 ,1,1,0.,12.0,0.,12.0,0.,12.0,0.,12.0
1979-03-10 12:36:46.220 ,0,1,0.,12.0,0.,12.0,0.,12.0,0.,12.0
1979-03-10 12:36:58.220 ,0,1,0.,12.0,0.,12.0,0.,12.0,0.,12.0
1979-03-10 12:37:10.220 ,0,1,0.,12.0,0.,12.0,0.,12.0,0.,12.0
1979-03-10 12:37:22.220 ,0,1,0.,12.0,0.,12.0,0.,12.0,0.,12.0
1979-03-10 12:37:34.220 ,1,1,0.,12.0,0.,12.0,0.,12.0,0.,12.0
1979-03-10 12:37:46.220 ,1,1,0.,12.0,0.,12.0,0.,12.0,0.,12.0
1979-03-10 12:37:58.220 ,2,1,0.,12.0,0.,12.0,0.,12.0,0.,12.0
1979-03-10 12:38:10.220 ,2,1,0.,12.0,0.,12.0,0.,12.0,0.,12.0
1979-03-10 12:38:22.220 ,3,1,0.,12.0,0.,12.0,0.,12.0,0.,12.0
1979-03-10 12:38:34.220 ,3,1,0.,12.0,0.,12.0,0.,12.0,0.,12.0
1979-03-10 12:38:46.220 ,4,1,0.,12.0,0.,12.0,0.,12.0,0.,12.0
1979-03-10 12:38:58.220 ,4,1,0.,12.0,0.,12.0,0.,12.0,0.,12.0
1979-03-10 12:39:10.220 ,5,1,0.,12.0,0.,12.0,0.,12.0,0.,12.0
1979-03-10 12:39:22.220 ,5,1,0.,12.0,0.,12.0,0.,12.0,0.,12.0
1979-03-10 12:39:34.220 ,6,1,0.,12.0,0.,12.0,0.,12.0,0.,12.0
1979-03-10 12:39:46.220 ,6,1,0.,12.0,0.,12.0,0.,12.0,0.,12.0
1979-03-10 12:39:58.220 ,7,1,0.,12.0,0.,12.0,0.,12.0,0.,12.0
1979-03-10 12:40:10.220 ,7,1,0.,12.0,0.,12.0,0.,12.0,0.,12.0
1979-03-10 12:40:22.220 ,7,1,0.,12.0,0.,12.0,0.,12.0,0.,12.0
1979-03-10 12:40:34.220 ,7,1,0.,12.0,0.,12.0,0.,12.0,0.,12.0
1979-03-10 12:40:46.220 ,6,1,0.,12.0,0.,12.0,0.,12.0,0.,12.0
1979-03-10 12:40:58.220 ,6,1,0.,12.0,0.,12.0,0.,12.0,0.,12.0
1979-03-10 12:41:10.220 ,5,1,0.,12.0,0.,12.0,0.,12.0,0.,12.0
1979-03-10 12:41:22.220 ,5,1,0.,12.0,0.,12.0,0.,12.0,0.,12.0
1979-03-10 12:41:34.220 ,4,1,0.,12.0,0.,12.0,0.,12.0,0.,12.0
1979-03-10 12:41:46.220 ,4,1,0.,12.0,0.,12.0,0.,12.0,0.,12.0
1979-03-10 12:41:58.220 ,3,1,0.,12.0,0.,12.0,0.,12.0,0.,12.0
1979-03-10 12:42:10.220 ,3,1,0.,12.0,0.,12.0,0.,12.0,0.,12.0
1979-03-10 12:42:22.220 ,2,1,0.,12.0,0.,12.0,0.,12.0,0.,12.0
1979-03-10 12:42:34.220 ,2,1,0.,12.0,0.,12.0,0.,12.0,0.,12.0
1979-03-10 12:42:46.220 ,1,1,0.,12.0,0.,12.0,0.,12.0,0.,12.0
1979-03-10 12:42:58.220 ,1,1,0.,12.0,0.,12.0,0.,12.0,0.,12.0
1979-03-10 12:43:10.220 ,0,1,0.,12.0,0.,12.0,0.,12.0,0.,12.0
1979-03-10 12:43:22.220 ,0,1,0.,12.0,0.,12.0,0.,12.0,0.,12.0
1979-03-10 12:43:34.220 ,0,1,0.,12.0,0.,12.0,0.,12.0,0.,12.0
1979-03-10 12:43:46.220 ,0,1,0.,12.0,0.,12.0,0.,12.0,0.,12.0
1979-03-10 12:43:58.220 ,1,1,0.,12.0,0.,12.0,0.,12.0,0.,12.0
1979-03-10 12:44:10.220 ,1,1,0.,12.0,0.,12.0,0.,12.0,0.,12.0
1979-03-10 12:44:22.220 ,2,1,0.,12.0,0.,12.0,0.,12.0,0.,12.0
1979-03-10 12:44:34.220 ,2,1,0.,12.0,0.,12.0,0.,12.0,0.,12.0
1979-03-10 12:44:46.220 ,3,1,0.,12.0,0.,12.0,0.,12.0,0.,12.0
1979-03-10 12:44:58.220 ,3,1,0.,12.0,0.,12.0,0.,12.0,0.,12.0
1979-03-10 12:45:10.220 ,4,1,0.,12.0,0.,12.0,0.,12.0,0.,12.0
1979-03-10 12:45:22.220 ,4,1,0.,12.0,0.,12.0,0.,12.0,0.,12.0
1979-03-10 12:45:34.220 ,5,1,0.,12.0,0.,12.0,0.,12.0,0.,12.0
1979-03-10 12:45:46.220 ,5,1,0.,12.0,0.,12.0,0.,12.0,0.,12.0
1979-03-10 12:45:58.220 ,6,1,0.,12.0,0.,12.0,0.,12.0,0.,12.0
1979-03-10 12:46:10.220 ,6,1,0.,12.0,0.,12.0,0.,12.0,0.,12.0
1979-03-10 12:46:22.220 ,7,1,0.,12.0,0.,12.0,0.,12.0,0.,12.0
1979-03-10 12:46:34.220 ,7,1,0.,12.0,0.,12.0,0.,12.0,0.,12.0
1979-03-10 12:46:46.220 ,7,1,0.,12.0,0.,12.0,0.,12.0,0.,12.0
1979-03-10 12:46:58.220 ,7,1,0.,12.0,0.,12.0,0.,12.0,0.,12.0
1979-03-10 12:47:10.220 ,6,1,0.,12.0,0.,12.0,0.,12.0,0.,12.0
1979-03-10 12:47:22.220 ,6,1,0.,12.0,0.,12.0,0.,12.0,0.,12.0
1979-03-10 12:47:34.220 ,5,1,0.,12.0,0.,12.0,0.,12.0,0.,12.0
1979-03-10 12:47:46.220 ,5,1,0.,12.0,0.,12.0,0.,12.0,0.,12.0
1979-03-10 12:47:58.220 ,4,1,0.,12.0,0.,12.0,0.,12.0,0.,12.0
1979-03-10 12:48:10.220 ,4,1,0.,12.0,0.,12.0,0.,12.0,0.,12.0
1979-03-10 12:48:22.220 ,3,1,0.,12.0,0.,12.0,0.,12.0,0.,12.0
1979-03-10 12:48:34.220 ,3,1,0.,12.0,0.,12.0,0.,12.0,0.,12.0
1979-03-10 12:48:46.220 ,2,1,0.,12.0,0.,12.0,0.,12.0,0.,12.0
1979-03-10 12:48:58.220 ,2,1,0.,12.0,0.,12.0,0.,12.0,0.,12.0
1979-03-10 12:49:10.220 ,1,1,0.,12.0,0.,12.0,0.,12.0,0.,12.0
1979-03-10 12:49:22.220 ,1,1,0.,12.0,0.,12.0,0.,12.0,0.,12.0
1979-03-10 12:49:34.220 ,0,1,0.,12.0,0.,12.0,0.,12.0,0.,12.0
1979-03-10 12:49:46.220 ,0,1,0.,12.0,0.,12.0,0.,12.0,0.,12.0
1979-03-10 12:49:58.220 ,0,1,0.,12.0,0.,12.0,0.,12.0,0.,12.0
1979-03-10 12:50:10.220 ,0,1,0.,12.0,0.,12.0,0.,12.0,0.,12.0
1979-03-10 12:50:22.220 ,1,1,0.,12.0,0.,12.0,0.,12.0,0.,12.0
1979-03-10 12:50:34.220 ,1,1,0.,12.0,0.,12.0,0.,12.0,0.,12.0
1979-03-10 12:50:46.220 ,2,1,0.,12.0,0.,12.0,0.,12.0,0.,12.0
1979-03-10 12:50:58.220 ,2,1,0.,12.0,0.,12.0,0.,12.0,0.,12.0
1979-03-10 12:51:10.220 ,3,1,0.,12.0,0.,12.0,0.,12.0,0.,12.0
1979-03-10 12:51:22.220 ,3,1,0.,12.0,0.,12.0,0.,12.0,0.,12.0
1979-03-10 12:51:34.220 ,4,1,0.,12.0,0.,12.0,0.,12.0,0.,12.0
1979-03-10 12:51:46.220 ,4,1,0.,12.0,0.,12.0,0.,12.0,0.,12.0
1979-03-10 12:51:58.220 ,5,1,0.,12.0,0.,12.0,0.,12.0,0.,12.0
1979-03-10 12:52:10.220 ,5,1,0.,12.0,0.,12.0,0.,12.0,0.,12.0
1979-03-10 12:52:22.220 ,6,1,0.,12.0,0.,12.0,0.,12.0,0.,12.0
1979-03-10 12:52:34.220 ,6,1,0.,12.0,0.,12.0,0.,12.0,0.,12.0
1979-03-10 12:52:46.220 ,7,1,0.,12.0,0.,12.0,0.,12.0,0.,12.0
1979-03-10 12:52:58.220 ,7,1,0.,12.0,0.,12.0,0.,12.0,0.,12.0
1979-03-10 12:53:10.220 ,7,1,0.,12.0,0.,12.0,0.,12.0,0.,12.0
1979-03-10 12:53:22.220 ,7,1,0.,12.0,0.,12.0,0.,12.0,0.,12.0
1979-03-10 12:53:34.220 ,6,1,0.,12.0,0.,12.0,0.,12.0,0.,12.0
1979-03-10 12:53:46.220 ,6,1,0.,12.0,0.,12.0,0.,12.0,0.,12.0
1979-03-10 12:53:58.220 ,5,1,0.,12.0,0.,12.0,0.,12.0,0.,12.0
1979-03-10 12:54:10.220 ,5,1,0.,12.0,0.,12.0,0.,12.0,0.,12.0
1979-03-10 12:54:22.220 ,4,1,0.,12.0,0.,12.0,0.,12.0,0.,12.0
1979-03-10 12:54:34.220 ,4,1,0.,12.0,0.,12.0,0.,12.0,0.,12.0
1979-03-10 12:54:46.220 ,3,1,0.,12.0,0.,12.0,0.,12.0,0.,12.0
1979-03-10 12:54:58.220 ,3,1,0.,12.0,0.,12.0,0.,12.0,0.,12.0
1979-03-10 12:55:10.220 ,2,1,0.,12.0,0.,12.0,0.,12.0,0.,12.0
1979-03-10 12:55:22.220 ,2,1,0.,12.0,0.,12.0,0.,12.0,0.,12.0
1979-03-10 12:55:34.220 ,1,1,0.,12.0,0.,12.0,0.,12.0,0.,12.0
1979-03-10 12:55:46.220 ,1,1,0.,12.0,0.,12.0,0.,12.0,0.,12.0
1979-03-10 12:55:58.220 ,0,1,0.,12.0,0.,12.0,0.,12.0,0.,12.0
1979-03-10 12:56:10.220 ,0,1,0.,12.0,0.,12.0,0.,12.0,0.,12.0
1979-03-10 12:56:22.220 ,0,1,0.,12.0,0.,12.0,0.,12.0,0.,12.0
1979-03-10 12:56:34.220 ,0,1,0.,12.0,0.,12.0,0.,12.0,0.,12.0
1979-03-10 12:56:46.220 ,1,1,0.,12.0,0.,12.0,0.,12.0,0.,12.0
1979-03-10 12:56:58.220 ,1,1,0.,12.0,0.,12.0,0.,12.0,0.,12.0
1979-03-10 12:57:10.220 ,2,1,0.,12.0,0.,12.0,0.,12.0,0.,12.0
1979-03-10 12:57:22.220 ,2,1,0.,12.0,0.,12.0,0.,12.0,0.,12.0
1979-03-10 12:57:34.220 ,3,1,0.,12.0,0.,12.0,0.,12.0,0.,12.0
1979-03-10 12:57:46.220 ,3,1,0.,12.0,0.,12.0,0.,12.0,0.,12.0
1979-03-10 12:57:58.220 ,4,1,0.,12.0,0.,12.0,0.,12.0,0.,12.0
1979-03-10 12:58:10.220 ,4,1,0.,12.0,0.,12.0,0.,12.0,0.,12.0
1979-03-10 12:58:22.220 ,5,1,0.,12.0,0.,12.0,0.,12.0,0.,12.0
1979-03-10 12:58:34.220 ,5,1,0.,12.0,0.,12.0,0.,12.0,0.,12.0
1979-03-10 12:58:46.220 ,6,1,0.,12.0,0.,12.0,0.,12.0,0.,12.0
1979-03-10 12:58:58.220 ,6,1,0.,12.0,0.,12.0,0.,12.0,0.,12.0
1979-03-10 12:59:10.220 ,7,1,0.,12.0,0.,12.0,0.,12.0,0.,12.0
1979-03-10 12:59:22.220 ,7,1,0.,12.0,0.,12.0,0.,12.0,0.,12.0
1979-03-10 12:59:34.220 ,7,1,0.,12.0,0.,12.0,0.,12.0,0.,12.0
1979-03-10 12:59:46.220 ,7,1,0.,12.0,0.,12.0,0.,12.0,0.,12.0
1979-03-10 12:59:58.220 ,6,1,0.,12.0,0.,12.0,0.,12.0,0.,12.0
1979-03-10 13:00:10.220 ,6,1,0.,12.0,0.,12.0,0.,12.0,0.,12.0
1979-03-10 13:00:22.220 ,5,1,0.,12.0,0.,12.0,0.,12.0,0.,12.0
1979-03-10 13:00:34.220 ,5,1,0.,12.0,0.,12.0,0.,12.0,0.,12.0
1979-03-10 13:00:46.220 ,4,1,0.,12.0,0.,12.0,0.,12.0,0.,12.0
1979-03-10 13:00:58.220 ,4,1,0.,12.0,0.,12.0,0.,12.0,0.,12.0
1979-03-10 13:01:10.220 ,3,1,0.,12.0,0.,12.0,0.,12.0,0.,12.0
1979-03-10 13:01:22.220 ,3,1,0.,12.0,0.,12.0,0.,12.0,0.,12.0
1979-03-10 13:01:34.220 ,2,1,0.,12.0,0.,12.0,0.,12.0,0.,12.0
1979-03-10 13:01:46.220 ,2,1,0.,12.0,0.,12.0,0.,12.0,0.,12.0
1979-03-10 13:01:58.220 ,1,1,0.,12.0,0.,12.0,0.,12.0,0.,12.0
1979-03-10 13:02:10.220 ,1,1,0.,12.0,0.,12.0,0.,12.0,0.,12.0
1979-03-10 13:02:22.220 ,0,1,0.,12.0,0.,12.0,0.,12.0,0.,12.0
1979-03-10 13:02:34.220 ,0,1,0.,12.0,0.,12.0,0.,12.0,0.,12.0
1979-03-10 13:02:46.220 ,0,1,0.,12.0,0.,12.0,0.,12.0,0.,12.0
1979-03-10 13:02:58.220 ,0,1,0.,12.0,0.,12.0,0.,12.0,0.,12.0
1979-03-10 13:03:10.220 ,1,1,0.,12.0,0.,12.0,0.,12.0,0.,12.0
1979-03-10 13:03:22.220 ,1,1,0.,12.0,0.,12.0,0.,12.0,0.,12.0
1979-03-10 13:03:34.220 ,2,1,0.,12.0,0.,12.0,0.,12.0,0.,12.0
1979-03-10 13:03:46.220 ,2,1,0.,12.0,0.,12.0,0.,12.0,0.,12.0
1979-03-10 13:03:58.220 ,3,1,0.,12.0,0.,12.0,0.,12.0,0.,12.0
1979-03-10 13:04:10.220 ,3,1,0.,12.0,0.,12.0,0.,12.0,0.,12.0
1979-03-10 13:04:22.220 ,4,1,0.,12.0,0.,12.0,0.,12.0,0.,12.0
1979-03-10 13:04:34.220 ,4,1,0.,12.0,0.,12.0,0.,12.0,0.,12.0
1979-03-10 13:04:46.220 ,5,1,0.,12.0,0.,12.0,0.,12.0,0.,12.0
1979-03-10 13:04:58.220 ,5,1,0.,12.0,0.,12.0,0.,12.0,0.,12.0
1979-03-10 13:05:10.220 ,6,1,0.,12.0,0.,12.0,0.,12.0,0.,12.0
1979-03-10 13:05:22.220 ,6,1,0.,12.0,0.,12.0,0.,12.0,0.,12.0
1979-03-10 13:05:34.220 ,7,1,0.,12.0,0.,12.0,0.,12.0,0.,12.0
1979-03-10 13:05:46.220 ,7,1,0.,12.0,0.,12.0,0.,12.0,0.,12.0
1979-03-10 13:05:58.220 ,7,1,0.,12.0,0.,12.0,0.,12.0,0.,12.0
1979-03-10 13:06:10.220 ,7,1,0.,12.0,0.,12.0,0.,12.0,0.,12.0
1979-03-10 13:06:22.220 ,6,1,0.,12.0,0.,12.0,0.,12.0,0.,12.0
1979-03-10 13:06:34.220 ,6,1,0.,12.0,0.,12.0,0.,12.0,0.,12.0
1979-03-10 13:06:46.220 ,5,1,0.,12.0,0.,12.0,0.,12.0,0.,12.0
1979-03-10 13:06:58.220 ,5,1,0.,12.0,0.,12.0,0.,12.0,0.,12.0
1979-03-10 13:07:10.220 ,4,1,0.,12.0,0.,12.0,0.,12.0,0.,12.0
1979-03-10 13:07:22.220 ,4,1,0.,12.0,0.,12.0,0.,12.0,0.,12.0
1979-03-10 13:07:34.220 ,3,1,0.,12.0,0.,12.0,0.,12.0,0.,12.0
1979-03-10 13:07:46.220 ,3,1,0.,12.0,0.,12.0,0.,12.0,0.,12.0
1979-03-10 13:07:58.220 ,2,1,0.,12.0,0.,12.0,0.,12.0,0.,12.0
1979-03-10 13:08:10.220 ,2,1,0.,12.0,0.,12.0,0.,12.0,0.,12.0
1979-03-10 13:08:22.220 ,1,1,0.,12.0,0.,12.0,0.,12.0,0.,12.0
1979-03-10 13:08:34.220 ,1,1,0.,12.0,0.,12.0,0.,12.0,0.,12.0
1979-03-10 13:08:46.220 ,1,0,0.,12.0,0.,12.0,0.,12.0,0.,12.0
1979-03-10 13:08:58.220 ,1,0,,0,,0,,0,,0
1979-03-10 13:09:10.220 ,0,1,0.,12.0,0.,12.0,0.,12.0,0.,12.0
1979-03-10 13:09:22.220 ,0,1,0.,12.0,0.,12.0,0.,12.0,0.,12.0
1979-03-10 13:09:34.220 ,1,1,0.,12.0,0.,12.0,0.,12.0,0.,12.0
1979-03-10 13:09:46.220 ,1,1,0.,12.0,0.,12.0,0.,12.0,0.,12.0
1979-03-10 13:09:58.220 ,2,1,0.,12.0,0.,12.0,0.,12.0,0.,12.0
1979-03-10 13:10:10.220 ,2,1,0.,12.0,0.,12.0,0.,12.0,0.,12.0
1979-03-10 13:10:22.220 ,3,1,0.,12.0,0.,12.0,0.,12.0,0.,12.0
1979-03-10 13:10:34.220 ,3,1,0.,12.0,0.,12.0,0.,12.0,0.,12.0
1979-03-10 13:10:46.220 ,4,1,0.,12.0,0.,12.0,0.,12.0,0.,12.0
1979-03-10 13:10:58.220 ,4,1,0.,12.0,0.,12.0,0.,12.0,0.,12.0
1979-03-10 13:11:10.220 ,5,1,0.,12.0,0.,12.0,0.,12.0,0.,12.0
1979-03-10 13:11:22.220 ,5,1,0.,12.0,0.,12.0,0.,12.0,0.,12.0
1979-03-10 13:11:34.220 ,6,1,0.,12.0,0.,12.0,0.,12.0,0.,12.0
1979-03-10 13:11:46.220 ,6,1,0.,12.0,0.,12.0,0.,12.0,0.,12.0
1979-03-10 13:11:58.220 ,7,1,0.,12.0,0.,12.0,0.,12.0,0.,12.0
1979-03-10 13:12:10.220 ,7,1,0.,12.0,0.,12.0,0.,12.0,0.,12.0
1979-03-10 13:12:22.220 ,7,1,0.,12.0,0.,12.0,0.,12.0,0.,12.0
1979-03-10 13:12:34.220 ,7,1,0.,12.0,0.,12.0,0.,12.0,0.,12.0
1979-03-10 13:12:46.220 ,6,1,0.,12.0,0.,12.0,0.,12.0,0.,12.0
1979-03-10 13:12:58.220 ,6,1,0.,12.0,0.,12.0,0.,12.0,0.,12.0
1979-03-10 13:13:10.220 ,5,1,0.,12.0,0.,12.0,0.,12.0,0.,12.0
1979-03-10 13:13:22.220 ,5,1,0.,12.0,0.,12.0,0.,12.0,0.,12.0
1979-03-10 13:13:34.220 ,4,1,0.,12.0,0.,12.0,0.,12.0,0.,12.0
1979-03-10 13:13:46.220 ,4,1,0.,12.0,0.,12.0,0.,12.0,0.,12.0
1979-03-10 13:13:58.220 ,3,1,0.,12.0,0.,12.0,0.,12.0,0.,12.0
1979-03-10 13:14:10.220 ,3,1,0.,12.0,0.,12.0,0.,12.0,0.,12.0
1979-03-10 13:14:22.220 ,2,1,0.,12.0,0.,12.0,0.,12.0,0.,12.0
1979-03-10 13:14:34.220 ,2,1,0.,12.0,0.,12.0,0.,12.0,0.,12.0
1979-03-10 13:14:46.220 ,1,1,0.,12.0,0.,12.0,0.,12.0,0.,12.0
1979-03-10 13:14:58.220 ,1,1,0.,12.0,0.,12.0,0.,12.0,0.,12.0
1979-03-10 13:15:10.220 ,0,1,0.,12.0,0.,12.0,0.,12.0,0.,12.0
1979-03-10 13:15:22.220 ,0,1,0.,12.0,0.,12.0,0.,12.0,0.,12.0
1979-03-10 13:15:34.220 ,0,1,0.,12.0,0.,12.0,0.,12.0,0.,12.0
1979-03-10 13:15:46.220 ,0,1,0.,12.0,0.,12.0,0.,12.0,0.,12.0
1979-03-10 13:15:58.220 ,1,1,0.,12.0,0.,12.0,0.,12.0,0.,12.0
1979-03-10 13:16:10.220 ,1,1,0.,12.0,0.,12.0,0.,12.0,0.,12.0
1979-03-10 13:16:22.220 ,2,1,0.,12.0,0.,12.0,0.,12.0,0.,12.0
1979-03-10 13:16:34.220 ,2,1,0.,12.0,0.,12.0,0.,12.0,0.,12.0
1979-03-10 13:16:46.220 ,3,1,0.,12.0,0.,12.0,0.,12.0,0.,12.0
1979-03-10 13:16:58.220 ,3,1,0.,12.0,0.,12.0,0.,12.0,0.,12.0
1979-03-10 13:17:10.220 ,4,1,0.,12.0,0.,12.0,0.,12.0,0.,12.0
1979-03-10 13:17:22.220 ,4,1,0.,12.0,0.,12.0,0.,12.0,0.,12.0